Location: Bretea-Român?
(45.6500°N, 23.0167°E)
Time: 14:41:59
(UTC+00:00)

Daily predictions for brighter satellites

Satellite Brightness Start Highest point End
(mag) Time Altitude Azimuth Time Altitude Azimuth Time Altitude Azimuth
Gbstr 26 Del rocket 3.5 18:44:29 10° WSW 18:48:39 71° NNW 18:53:42 10° ENE
Cosmos 1825 2.4 18:46:25 10° SSW 18:49:46 64° W 18:53:09 10° N
ARGOS Delta rocket 3.9 18:45:21 10° SSE 18:50:01 89° ENE 18:54:58 10° N
Okean-O 2.6 18:47:03 10° SSE 18:51:26 76° ENE 18:55:51 10° N
CZ-4C R/B 3.5 18:55:52 10° NNE 18:59:24 42° E 19:02:46 10° S
NOSS 2-2 (E) 3.3 18:59:05 10° SSW 19:02:13 36° ESE 19:05:07 10° NE
NOSS 2-2 (C) 2.7 18:59:22 10° SSW 19:02:38 61° SE 19:05:42 10° NE
Cosmos 2084 3.6 19:01:33 10° SSW 19:05:32 45° ESE 19:09:22 10° NE
NOSS 2-3 (E) 3.5 19:04:29 10° SSW 19:07:56 42° ESE 19:11:38 10° NE
USA 276 2.9 19:06:10 10° WNW 19:08:59 43° NNE 19:11:54 10° E
Nadezhda 3 Rocket 4.2 19:03:14 10° N 19:09:17 56° ENE 19:15:19 10° SSE
Cosmos 2181 Rocket 4.3 19:03:54 10° NNW 19:10:02 72° W 19:16:12 10° S
Cosmos 1844 3.9 19:08:13 10° SSW 19:14:01 82° WNW 19:19:50 10° NNE
Terra 2.0 19:13:57 11° SSE 19:18:26 56° ENE 19:23:04 10° N
Meteor 1-21 Rocket 4.2 19:15:11 10° S 19:20:43 78° E 19:26:16 10° NNE
NOSS 2-3 (C) 3.1 19:22:01 10° SSW 19:25:35 65° SE 19:29:30 10° NE
GP-B 3.9 19:26:26 10° N 19:30:44 53° W 19:35:01 10° SSW
Meteor 2-1 Rocket 4.4 19:26:29 10° N 19:32:03 59° ENE 19:36:36 15° SSE
Cosmos 1833 Rocket 3.6 19:27:04 10° NNW 19:32:18 37° NE 19:36:42 14° ESE
ATLAS CENTAUR R/B 1.3 19:28:56 10° NNW 19:32:56 75° NE 19:35:58 18° SE
Okean 1 Rocket 4.3 19:29:16 10° NNW 19:33:27 40° W 19:37:37 10° SSW
Cosmos 1437 Rocket 4.2 19:32:35 16° ESE 19:33:50 19° E 19:36:27 10° NE
Cosmos 1455 Rocket 3.1 19:34:24 10° N 19:38:48 83° W 19:42:41 13° S
Cosmos 44 4.0 19:35:12 10° S 19:40:00 36° ESE 19:44:39 10° NE
NOSS 2-2 (D) 2.8 19:36:41 10° SW 19:40:00 82° NW 19:43:08 10° NE
Cosmos 1975 Rocket 3.0 19:36:09 10° S 19:40:36 76° E 19:45:04 10° NNE
Lacrosse 5 2.9 19:36:25 10° WSW 19:41:19 49° NNW 19:46:15 10° NE
Cosmos 1025 Rocket 3.8 19:37:13 10° SSW 19:41:21 51° WNW 19:45:30 10° N
Cosmos 2184 Rocket 4.4 19:35:58 10° SSW 19:42:18 67° W 19:48:36 10° N
ERS-1 Rocket 3.1 19:38:07 11° S 19:42:54 74° WSW 19:47:56 10° NNW
Spot 2 Rocket 3.5 19:39:22 14° SSE 19:43:43 84° ENE 19:48:51 10° NNW
Cosmos 2082 Rocket 4.2 19:41:11 10° N 19:44:50 17° NE 19:48:28 10° E
ATLAS 5 CENTAUR R/B 3.6 19:43:34 10° W 19:46:22 24° NW 19:49:29 10° NNE
Cosmos 220 Rocket 4.4 19:45:25 10° N 19:49:27 48° ENE 19:51:52 22° SE
Cosmos 1844 Rocket 4.2 19:45:14 10° SW 19:50:26 39° NW 19:55:40 10° NNE
Cosmos 2278 Rocket 3.5 19:49:26 18° SE 19:51:25 22° E 19:55:36 10° NE
Cosmos 2341 Rocket 4.3 19:48:47 16° SSE 19:53:43 52° E 19:59:49 10° NNE
Cosmos 1339 Rocket 4.5 19:47:41 10° N 19:53:57 77° E 19:58:46 17° SSE
Landsat 5 4.2 19:51:44 10° NNE 19:55:51 38° E 19:57:59 23° SSE
Cosmos 2298 Rocket 4.4 19:53:06 16° S 19:57:02 45° ESE 20:02:05 10° NNE
Meteor 1-11 4.2 19:53:44 10° S 19:59:28 88° E 20:05:12 10° NNE
MetOp-A 4.3 19:57:03 22° SE 19:59:42 43° ENE 20:03:50 10° N
Okean O Rocket 4.3 19:58:51 10° WSW 20:00:30 12° W 20:02:09 10° WNW
Cosmos 1606 2.4 19:58:43 10° N 20:02:18 89° W 20:04:09 26° S
Ariane Rocket 3.3 20:07:17 17° S 20:11:07 62° W 20:16:10 10° NNW
Cosmos 1536 Rocket 4.0 20:10:07 28° SE 20:11:51 42° E 20:15:56 10° NNE
Cosmos 1869 3.3 20:09:23 10° NNW 20:13:11 71° W 20:15:16 26° S
MOS 1 Rocket 4.2 20:11:40 13° SSW 20:15:32 41° W 20:19:47 10° NNW
ATLAS 3B R/B 3.9 20:14:16 20° SE 20:16:04 23° ESE 20:21:32 10° ENE
ISS -1.7 20:16:56 10° WNW 20:19:52 27° N 20:22:47 10° ENE
USA 215 4.4 20:15:52 16° S 20:20:07 31° SW 20:25:49 10° WNW
ARIANE 5 R/B 3.8 20:21:27 22° ESE 20:23:16 30° ENE 20:27:10 10° N
USA 290 4.3 20:25:33 16° ENE 20:25:33 16° ENE 20:26:44 10° ENE
Cosmos 2098 4.4 20:25:19 33° S 20:26:51 86° E 20:30:02 10° N
Cosmos 1943 Rocket 3.2 20:26:53 25° ESE 20:28:04 27° ESE 20:32:42 10° NE
Cosmos 1821 Rocket 4.5 20:25:12 26° SE 20:28:18 45° E 20:34:18 10° NNE
GENESIS II 3.9 20:25:21 10° NW 20:28:55 78° NE 20:29:52 46° SE
Cosmos 2228 2.9 20:25:35 10° N 20:29:47 85° W 20:31:33 34° S
Geosat 4.2 20:26:05 10° NNE 20:31:05 70° WNW 20:36:04 10° SW
Cosmos 1125 Rocket 4.4 20:29:55 10° SW 20:35:04 50° WNW 20:40:14 10° NNE
Cosmos 2150 Rocket 4.1 20:34:01 14° SSW 20:38:41 83° WNW 20:44:10 10° NNE
NOSS 3-1 (C) 2.9 20:37:12 23° SSW 20:40:11 62° ESE 20:45:49 10° NE
USA 276 2.7 20:40:21 10° WNW 20:42:48 41° WSW 20:42:48 41° WSW
SeaSat 1 3.8 20:47:14 18° E 20:49:58 31° NE 20:54:17 10° N
Cosmos 2366 rocket 4.1 20:45:59 20° SSW 20:50:23 75° W 20:56:33 10° N
Terra 4.1 20:53:15 10° SW 20:56:22 17° W 20:59:31 10° NW
BREEZE-M DEB (TANK) 4.5 20:53:55 10° WNW 20:57:44 55° SSW 21:03:15 25° SE
Cosmos 1812 3.3 20:59:00 10° N 21:02:22 38° ENE 21:02:28 38° E
Aureole 2 4.4 21:05:44 62° NE 21:05:44 62° NE 21:08:38 10° NNE
PSLV R/B 3.9 21:04:41 10° NNE 21:08:37 55° E 21:08:54 53° ESE
Cosmos 1892 Rocket 3.9 21:08:00 45° ESE 21:08:40 50° E 21:12:59 10° NNE
Meteor 2-13 Rocket 4.4 21:03:00 10° N 21:09:11 83° W 21:11:57 35° S
Cosmos 1437 Rocket 4.3 21:07:19 17° WSW 21:09:16 28° WNW 21:12:28 10° N
ATLAS CENTAUR R/B 3.7 21:08:13 10° W 21:10:01 13° WSW 21:10:52 12° WSW
Cosmos 1140 Rocket 4.5 21:08:05 10° N 21:12:50 36° ENE 21:14:53 26° ESE
Cosmos 2239 Rocket 4.5 21:10:55 37° SSE 21:13:25 67° E 21:19:36 10° NNE
SL-08 R/B 4.4 21:12:45 38° SSE 21:15:09 68° E 21:21:14 10° NNE
Cosmos 1833 Rocket 3.6 21:11:02 10° NW 21:16:13 38° WSW 21:18:22 28° SSW
NOSS 3-1 (A) 3.1 21:16:36 47° SSE 21:17:35 54° ESE 21:23:09 10° NE
Cosmos 2123 Rocket 4.4 21:14:35 10° N 21:20:44 53° ENE 21:23:11 35° SE
Lacrosse 5 4.3 21:21:13 10° WNW 21:25:18 24° N 21:29:23 10° NE
Cosmos 1000 Rocket 4.4 21:19:31 10° N 21:25:43 83° E 21:28:02 41° SSE
Cosmos-2242 4.4 21:25:08 10° NNE 21:28:37 24° ENE 21:29:17 23° E
Cosmos 1606 Rocket 3.8 21:24:55 10° NNW 21:29:10 56° W 21:29:59 47° SW
Cosmos 2082 Rocket 2.1 21:24:10 10° NNW 21:29:49 82° ENE 21:31:39 45° SE
Cosmos 1726 Rocket 3.5 21:27:06 10° NNW 21:31:25 73° W 21:32:05 59° SSW
Cosmos 2278 Rocket 2.6 21:31:13 21° SW 21:34:59 62° WNW 21:40:37 10° NNE
Cosmos 2369 Rocket 3.8 21:37:51 19° ESE 21:38:04 19° E 21:41:52 10° ENE
ULPM Upper Stage 3.0 21:39:27 10° NW 21:43:47 64° NE 21:44:39 50° E
H-2A R/B 2.1 21:44:33 82° SSW 21:44:40 85° WSW 21:48:32 10° NNW
PSLV R/B 4.4 21:40:41 10° NNE 21:44:43 36° E 21:44:44 36° E
USA 229 DEB 4.2 21:44:54 32° ESE 21:45:25 32° ESE 21:51:08 10° NE
USA 229 4.3 21:45:03 31° ESE 21:45:33 32° ESE 21:51:14 10° NE
CZ-4C R/B 3.4 21:47:14 10° NNW 21:54:11 60° NE 22:00:34 18° ESE
Cosmos 1934 Rocket 3.9 21:54:43 44° S 21:56:56 88° E 22:03:12 10° N
Cosmos 2058 Rocket 2.9 21:52:42 10° NNW 21:57:02 74° W 21:57:25 68° SW
ISS -2.8 21:53:55 10° NW 21:57:08 44° NNE 21:57:19 44° NNE
CRYOSAT 2 4.3 21:53:04 10° N 21:57:57 68° E 21:58:43 58° SE
USA 290 4.1 21:58:14 24° WNW 21:58:40 25° WNW 22:01:23 10° N
COSMOS 2406 3.1 21:53:42 10° NNW 21:59:24 75° WSW 22:00:48 51° S
ARIANE 5 R/B 3.9 21:58:54 28° WSW 21:59:37 29° W 22:03:31 10° NW
Cosmos 1782 3.1 21:56:03 10° N 21:59:39 51° ENE 21:59:39 51° ENE
ATLAS 3B R/B 2.8 22:01:26 26° SW 22:05:52 85° NW 22:13:35 10° NE
Cosmos 1378 4.1 22:02:52 10° N 22:05:16 34° NE 22:05:16 34° NE
Cosmos 2221 4.4 22:06:06 10° NNE 22:09:12 19° ENE 22:10:18 18° E
Cosmos 1943 Rocket 2.9 22:08:20 24° WSW 22:11:30 51° WNW 22:16:59 10° NNE
USA 281 3.2 22:09:48 37° SE 22:12:38 77° ENE 22:19:13 10° NNW
Meteor 2-19 Rocket 4.4 22:07:42 10° N 22:13:54 81° W 22:15:45 48° S
USA 81 4.0 22:10:03 10° N 22:15:20 75° E 22:16:27 55° SSE
ALOS 2 3.0 22:19:19 49° WSW 22:19:34 50° W 22:23:51 10° NNW
Cosmos 2058 3.8 22:19:03 37° W 22:19:35 39° WNW 22:23:27 10° N
Spot 2 4.2 22:20:41 59° SW 22:21:01 61° WSW 22:25:21 10° NNW
Meteor 2-3 Rocket 3.7 22:21:26 52° SSE 22:22:49 74° E 22:28:30 10° NNE
Cosmos 1812 Rocket 3.8 22:18:38 10° N 22:23:02 56° ENE 22:23:31 53° ESE
Gbstr 26 Del rocket 4.1 22:18:07 10° WNW 22:23:17 62° NNE 22:29:43 10° ESE
H-2A R/B 2.5 22:20:53 10° NNE 22:24:34 45° E 22:24:34 45° E
Alouette 2 Rocket 4.4 22:24:00 38° WSW 22:24:59 45° WNW 22:30:09 10° N
Cosmos 1602 Rocket 3.6 22:25:39 61° ESE 22:25:48 62° E 22:30:05 10° NNE
Cosmos 1535 Rocket 4.4 22:24:51 46° SSW 22:26:49 78° W 22:33:00 10° N
SeaSat 1 2.9 22:26:56 43° SW 22:27:16 43° WSW 22:31:58 10° NW
Cosmos 407 Rocket 3.4 22:22:29 10° NNW 22:27:41 81° WSW 22:28:37 61° S
BREEZE-M DEB (TANK) 3.9 22:15:45 10° SW 22:31:51 56° SSE 22:36:04 10° ENE
Gblst 52 Del rocket 4.2 22:32:25 51° SE 22:32:31 51° SE 22:37:51 10° ENE
Cosmos 1271 Rocket 2.9 22:33:32 60° NW 22:33:32 60° NW 22:37:02 10° N
USA 234 4.2 22:28:17 10° ENE 22:33:48 28° SE 22:34:08 28° SE
Okean 1-7 Rocket 3.4 22:33:58 75° SE 22:34:11 77° E 22:38:34 10° NNE
Cosmos 1605 Rocket 3.9 22:32:33 47° SSW 22:34:26 81° W 22:40:36 10° N
Cosmos 1666 3.5 22:37:15 39° NE 22:37:15 39° NE 22:39:47 10° NNE
USA 305 3.8 22:38:33 10° NW 22:40:34 30° NNW 22:40:34 30° NNW
BREEZE-M DEB (TANK) 4.4 22:43:15 28° ESE 22:43:15 28° ESE 22:47:31 10° ENE
Cosmos 1238 Rocket 4.0 22:39:26 10° NNW 22:42:01 29° WNW 22:42:01 29° WNW
Meteor 1-26 Rocket 4.2 22:37:09 10° N 22:42:42 78° ENE 22:44:14 49° SSE
Lacrosse 5 rocket 2.9 22:44:25 23° E 22:44:25 23° E 22:46:23 10° ENE
Cosmos 1758 Rocket 3.4 22:43:55 69° WSW 22:44:09 72° W 22:48:27 10° N
Cosmos 1500 3.5 22:47:50 55° N 22:47:50 55° N 22:50:33 10° N
Cosmos 2297 3.6 22:46:45 52° SSW 22:48:15 86° ESE 22:54:00 10° NNE
Cosmos 1626 Rocket 4.2 22:48:21 41° W 22:48:50 43° WNW 22:52:57 10° N
Timation 1 Rocket 4.3 22:43:01 10° NNW 22:49:01 77° WSW 22:50:42 49° S
Cosmos 2251 Rocket 3.6 22:44:56 10° NNW 22:50:12 61° WSW 22:51:00 54° SW
Cosmos 1933 3.8 22:49:36 10° NNW 22:53:08 49° WNW 22:53:08 49° WNW
Cosmos 1140 Rocket 4.4 22:50:00 10° NW 22:54:28 31° W 22:54:48 31° WSW
Cosmos 1624 Rocket 3.9 22:57:43 58° S 22:58:40 73° ESE 23:03:54 10° NNE
Cosmos 1153 Rocket 4.4 22:57:06 47° S 22:59:04 87° W 23:05:23 10° N
SL-8 R/B 3.6 23:00:52 64° SSE 23:00:52 64° SSE 23:05:32 10° ENE
Cosmos 1954 Rocket 3.9 22:56:27 10° NNW 23:01:39 81° ENE 23:02:58 51° SSE
SJ 16-02 4.1 23:00:27 10° NNE 23:02:24 13° NE 23:04:21 10° ENE
Meteor 2-21 4.4 22:58:15 10° N 23:04:26 88° E 23:06:32 45° S
CZ-2D R/B 4.4 23:02:38 10° ENE 23:04:36 12° E 23:06:33 10° ESE
Cosmos-2242 4.2 23:02:14 10° NNW 23:05:51 30° W 23:05:51 30° W
Cosmos 1420 Rocket 4.0 23:04:45 52° SW 23:06:02 78° WNW 23:11:21 10° NNE
USA 307 3.0 23:02:26 10° NW 23:05:32 52° NNW 23:05:32 52° NNW
Helios 1A Rocket 4.4 23:05:56 23° E 23:07:08 27° ENE 23:10:25 10° N
Cosmos 2173 Rocket 4.0 23:05:22 43° SSE 23:07:22 67° E 23:13:24 10° NNE
Lacrosse 5 4.1 23:05:23 10° NW 23:09:39 26° NNE 23:13:56 10° ENE
CENTAUR R/B 3.8 23:01:57 10° NW 23:09:59 57° NE 23:19:02 10° ESE
Cosmos 2056 Rocket 3.4 23:11:01 54° SSW 23:12:16 85° WNW 23:17:32 10° NNE
Cosmos 2082 Rocket 4.0 23:09:59 10° WNW 23:13:06 15° W 23:13:28 15° WSW
Cosmos 1656 Rocket 4.0 23:13:38 36° WSW 23:15:36 56° WNW 23:21:05 10° NNE
Lacrosse 4 Rocket 1.1 23:20:40 81° SE 23:20:43 82° ESE 23:24:50 10° NNE
Cosmos 2369 Rocket 2.3 23:19:37 42° SW 23:21:28 68° WNW 23:27:05 10° NNE
Cosmos 1602 3.6 23:24:54 77° NNW 23:24:54 77° NNW 23:28:19 10° N
Iridium 4 Rocket 4.1 23:24:39 10° NNW 23:30:13 53° W 23:31:55 40° SW
Cosmos 1190 Rocket 4.5 23:27:20 10° NW 23:32:13 41° WSW 23:32:46 40° WSW
Cosmos 2263 4.3 23:33:41 41° SW 23:35:40 72° WNW 23:41:27 10° NNE
Cosmos 676 Rocket 4.0 23:30:35 10° NNW 23:35:42 64° WSW 23:36:47 51° SSW
USA 229 DEB 4.0 23:32:18 25° WSW 23:35:56 57° NW 23:42:40 10° NE
USA 229 4.0 23:32:27 25° WSW 23:36:03 57° NW 23:42:48 10° NE
NOSS 2-1 (C) 4.1 23:42:09 31° E 23:42:09 31° E 23:44:19 10° NE
CZ-4C R/B 3.5 23:35:47 10° NW 23:42:45 42° WSW 23:45:35 33° SSW
COSMOS 2455 2.8 23:37:22 10° NNW 23:43:27 88° WSW 23:46:54 27° SSE
Cosmos 1340 Rocket 2.5 23:40:35 10° NNW 23:44:28 87° W 23:44:46 75° S
Resurs 1-4 Rocket 3.5 23:40:53 10° NE 23:45:32 30° E 23:48:08 20° SE
Cosmos 2221 3.1 23:42:42 10° NNW 23:46:41 40° W 23:46:52 40° W
Cosmos 1741 Rocket 4.3 23:44:51 10° NNW 23:50:08 65° ENE 23:53:19 24° SE
ADEOS II 3.9 23:47:25 10° NE 23:51:24 22° E 23:54:39 13° SE
Okean 1 3.5 23:51:46 10° N 23:55:31 60° E 23:56:20 46° SE
